SYL476 UUWW-UEEE

Flight info

Callsign SYL476
Flight time N/A
Altitude 37000
Route OLMUN3A OLMUN T629 IPSIL T830 LAMGU N604 HMN L870 KUMIR G356 DEM G370 ABGUR ABGUR6D/23
Aircraft B737/M-SDE2E3FGHIRWXY/LB1

Departure

Time N/A
Airport Vnukovo International Airport (UUWW)

Arrival

Time 2026-04-24 10:38
Airport Platon Oyunsky Yakutsk International Airport (UEEE)
Time Latitude Longitude Altitude Speed Heading
2026-04-24 10:21 62.25094 127.71962 25287 ft 436 kts 99°
2026-04-24 10:21 62.24662 127.78376 24418 ft 432 kts 99°
2026-04-24 10:22 62.24232 127.84731 23580 ft 428 kts 99°
2026-04-24 10:22 62.24093 127.86767 23260 ft 427 kts 99°
2026-04-24 10:22 62.22986 128.02854 21008 ft 412 kts 99°
2026-04-24 10:23 62.21340 128.26280 18967 ft 348 kts 99°
2026-04-24 10:24 62.20970 128.31466 18250 ft 357 kts 99°
2026-04-24 10:24 62.20587 128.36800 17418 ft 366 kts 98°
2026-04-24 10:24 62.20191 128.42282 16656 ft 385 kts 98°
2026-04-24 10:24 62.19767 128.48134 15802 ft 401 kts 98°
2026-04-24 10:25 62.19337 128.54021 14952 ft 397 kts 98°
2026-04-24 10:25 62.18942 128.59756 14083 ft 391 kts 95°
2026-04-24 10:25 62.18897 128.65551 13071 ft 382 kts 86°
2026-04-24 10:25 62.19243 128.71111 11961 ft 370 kts 79°
2026-04-24 10:26 62.19721 128.76454 10922 ft 361 kts 79°
2026-04-24 10:26 62.20195 128.81558 10690 ft 333 kts 78°
2026-04-24 10:26 62.20631 128.86286 10528 ft 315 kts 79°
2026-04-24 10:26 62.21045 128.90843 10404 ft 309 kts 79°
2026-04-24 10:27 62.21443 128.95300 10282 ft 304 kts 79°
2026-04-24 10:27 62.21828 128.99667 10146 ft 291 kts 79°
2026-04-24 10:27 62.22199 129.03905 9864 ft 284 kts 79°
2026-04-24 10:27 62.22553 129.07986 9487 ft 280 kts 79°
2026-04-24 10:28 62.22910 129.12123 9093 ft 277 kts 79°
2026-04-24 10:28 62.23257 129.16172 8720 ft 274 kts 79°
2026-04-24 10:28 62.23596 129.20129 8346 ft 272 kts 80°
2026-04-24 10:28 62.23933 129.24094 7970 ft 269 kts 80°
2026-04-24 10:29 62.24267 129.28033 7603 ft 267 kts 80°
2026-04-24 10:29 62.24597 129.31939 7251 ft 265 kts 80°
2026-04-24 10:29 62.24925 129.35833 6887 ft 263 kts 80°
2026-04-24 10:29 62.25248 129.39685 6527 ft 261 kts 80°
2026-04-24 10:30 62.25569 129.43529 6065 ft 263 kts 80°
2026-04-24 10:30 62.25890 129.47377 5675 ft 261 kts 80°
2026-04-24 10:30 62.26205 129.51179 5313 ft 258 kts 80°
2026-04-24 10:30 62.26516 129.54939 5047 ft 252 kts 81°
2026-04-24 10:31 62.26821 129.58628 4726 ft 249 kts 81°
2026-04-24 10:31 62.27123 129.62291 4318 ft 249 kts 81°
2026-04-24 10:31 62.27423 129.65954 3961 ft 247 kts 81°
2026-04-24 10:31 62.27710 129.69470 3625 ft 237 kts 81°
2026-04-24 10:32 62.27980 129.72795 3506 ft 213 kts 81°
2026-04-24 10:32 62.28221 129.75760 3400 ft 191 kts 81°
2026-04-24 10:32 62.28436 129.78462 3317 ft 178 kts 84°
2026-04-24 10:32 62.28206 129.80995 3307 ft 175 kts 121°
2026-04-24 10:33 62.27324 129.82670 3252 ft 169 kts 156°
2026-04-24 10:33 62.26247 129.83526 3220 ft 163 kts 157°
2026-04-24 10:33 62.25187 129.84388 3044 ft 164 kts 157°
2026-04-24 10:33 62.24120 129.85243 2863 ft 162 kts 158°
2026-04-24 10:34 62.23084 129.86063 2660 ft 155 kts 158°
2026-04-24 10:34 62.22089 129.86848 2470 ft 150 kts 158°
2026-04-24 10:34 62.21162 129.87575 2322 ft 141 kts 158°
2026-04-24 10:34 62.20256 129.88285 2140 ft 139 kts 158°
2026-04-24 10:35 62.19336 129.89005 2043 ft 140 kts 158°
2026-04-24 10:35 62.18404 129.89722 1820 ft 145 kts 162°
2026-04-24 10:35 62.17448 129.89558 1688 ft 138 kts 204°
2026-04-24 10:35 62.16591 129.88612 1664 ft 139 kts 207°
2026-04-24 10:36 62.15759 129.87574 1632 ft 138 kts 208°
2026-04-24 10:36 62.14935 129.86439 1445 ft 141 kts 213°
2026-04-24 10:36 62.14154 129.85220 1243 ft 138 kts 216°
2026-04-24 10:36 62.13384 129.83987 1051 ft 138 kts 216°
2026-04-24 10:37 62.12613 129.82752 848 ft 138 kts 217°
2026-04-24 10:37 62.11846 129.81567 667 ft 137 kts 216°
2026-04-24 10:37 62.11081 129.80347 467 ft 136 kts 219°
2026-04-24 10:37 62.10348 129.79129 332 ft 127 kts 216°
2026-04-24 10:38 62.09746 129.78168 324 ft 80 kts 217°
2026-04-24 10:38 62.09471 129.77721 326 ft 24 kts 216°
2026-04-24 10:38 62.09339 129.77511 327 ft 23 kts 216°
2026-04-24 10:38 62.09212 129.77314 327 ft 22 kts 216°
2026-04-24 10:39 62.09088 129.77122 326 ft 22 kts 216°
2026-04-24 10:39 62.08968 129.76934 329 ft 21 kts 219°
2026-04-24 10:39 62.08857 129.76739 328 ft 20 kts 219°
2026-04-24 10:39 62.08749 129.76550 328 ft 20 kts 215°
2026-04-24 10:40 62.08637 129.76387 328 ft 19 kts 216°
2026-04-24 10:40 62.08537 129.76231 328 ft 4 kts 217°
2026-04-24 10:40 62.08517 129.76182 332 ft 8 kts 239°
2026-04-24 10:40 62.08535 129.76035 328 ft 12 kts 315°
2026-04-24 10:41 62.08595 129.75890 328 ft 13 kts 310°
2026-04-24 10:41 62.08627 129.75782 330 ft 13 kts 299°
2026-04-24 10:41 62.08684 129.75566 330 ft 12 kts 299°
2026-04-24 10:41 62.08710 129.75456 328 ft 12 kts 294°
2026-04-24 10:42 62.08748 129.75297 327 ft 12 kts 301°
2026-04-24 10:42 62.08754 129.75201 330 ft 5 kts 269°
2026-04-24 10:42 62.08754 129.75179 330 ft 1 kts 269°
2026-04-24 10:42 62.08754 129.75169 330 ft 0 kts 269°
2026-04-24 10:43 62.08754 129.75168 330 ft 0 kts 269°